History for KNYNEWYO639

Roof of a 1 story trailer, New York, NY — Current Conditions
Daily Summary for October 24, 2017
  Current: High: Low: Average:
Temperature: 70.0°F 70.0°F 68.9°F 69.4°F
Dew Point: 66.0°F 66.0°F 65.0°F 65.3°F
Humidity: 87% 89% 87% 88%
Wind Speed: 10.0mph 23.1mph - 7.1mph
Wind Gust: 21.0mph 23.1mph - -
Wind: South - - South
Pressure: 29.87in 29.99in 29.84in -
Precipitation: 0.00in      
Statistics for the rest of the month
    High: Low: Average:
Temperature:   83.2°F 43.4°F 67.2°F
Dew Point:   74.0°F 32.0°F 55.3°F
Humidity:   95.0% 26.0% 69.8%
Wind Speed:   32.2mph from the WNW - 6.2mph
Wind Gust:   32.2mph from the WNW - -
Wind:   - - South
Pressure:   30.64in 29.78in -
Precipitation:   0.00in    
KNYNEWYO639 Weather Graph
Tabular Data for October 24, 2017
Time Temp. Dew Point Pressure Wind Gust Humidity Rainfall
00:00 69.6°F 66.0°F 29.97in 14.9mph 87% 0.00in
00:05 69.5°F 66.0°F 29.97in 19.0mph 87% 0.00in
00:10 69.5°F 66.0°F 29.97in 14.0mph 87% 0.00in
00:15 69.4°F 65.0°F 29.97in 12.0mph 87% 0.00in
00:20 69.4°F 65.0°F 29.97in 20.0mph 87% 0.00in
00:25 69.4°F 65.0°F 29.97in 17.0mph 88% 0.00in
00:30 69.3°F 65.0°F 29.97in 15.0mph 88% 0.00in
00:35 69.3°F 65.0°F 29.97in 11.2mph 88% 0.00in
00:40 69.2°F 65.0°F 29.96in 17.0mph 88% 0.00in
00:45 69.1°F 65.0°F 29.97in 17.0mph 88% 0.00in
00:50 69.1°F 65.0°F 29.97in 18.0mph 88% 0.00in
00:55 69.1°F 65.0°F 29.98in 16.0mph 88% 0.00in
01:00 69.1°F 65.0°F 29.98in 15.0mph 88% 0.00in
01:05 69.1°F 65.0°F 29.98in 17.0mph 88% 0.00in
01:11 69.3°F 65.0°F 29.98in 13.0mph 88% 0.00in
01:16 69.4°F 65.0°F 29.98in 15.0mph 87% 0.00in
01:21 69.2°F 65.0°F 29.98in 14.0mph 87% 0.00in
01:26 69.1°F 65.0°F 29.98in 17.0mph 87% 0.00in
01:31 69.0°F 65.0°F 29.99in 15.0mph 88% 0.00in
01:36 69.0°F 65.0°F 29.98in 17.0mph 88% 0.00in
01:41 69.1°F 65.0°F 29.99in 17.0mph 88% 0.00in
01:46 69.1°F 65.0°F 29.98in 13.0mph 88% 0.00in
01:51 69.1°F 65.0°F 29.98in 14.0mph 88% 0.00in
01:56 69.2°F 65.0°F 29.98in 13.0mph 88% 0.00in
02:01 69.2°F 65.0°F 29.98in 14.0mph 88% 0.00in
02:06 69.1°F 65.0°F 29.98in 12.0mph 88% 0.00in
02:11 69.1°F 65.0°F 29.97in 14.0mph 88% 0.00in
02:16 69.0°F 65.0°F 29.96in 18.0mph 88% 0.00in
02:21 69.0°F 65.0°F 29.95in 17.0mph 88% 0.00in
02:26 68.9°F 65.0°F 29.96in 18.0mph 89% 0.00in
02:31 68.9°F 65.0°F 29.96in 15.0mph 89% 0.00in
02:36 68.9°F 65.0°F 29.96in 16.0mph 89% 0.00in
02:41 68.9°F 65.0°F 29.95in 16.0mph 89% 0.00in
02:46 69.0°F 65.0°F 29.95in 17.0mph 89% 0.00in
02:51 69.0°F 65.0°F 29.94in 15.0mph 89% 0.00in
02:52 69.0°F 65.0°F 29.94in 15.0mph 89% 0.00in
02:57 69.0°F 65.0°F 29.94in 17.0mph 89% 0.00in
03:02 69.0°F 65.0°F 29.93in 12.0mph 89% 0.00in
03:04 69.0°F 65.0°F 29.92in 18.0mph 89% 0.00in
03:09 69.0°F 65.0°F 29.92in 12.0mph 89% 0.00in
03:14 69.0°F 65.0°F 29.91in 13.0mph 89% 0.00in
03:19 69.1°F 65.0°F 29.91in 15.0mph 89% 0.00in
03:24 69.2°F 66.0°F 29.89in 9.0mph 89% 0.00in
03:29 69.1°F 65.0°F 29.89in 9.0mph 89% 0.00in
03:34 69.0°F 65.0°F 29.89in 12.0mph 89% 0.00in
03:39 69.0°F 65.0°F 29.89in 14.0mph 89% 0.00in
03:44 69.0°F 65.0°F 29.87in 13.0mph 89% 0.00in
03:49 69.0°F 65.0°F 29.88in 18.0mph 89% 0.00in
03:54 69.1°F 65.0°F 29.87in 14.0mph 89% 0.00in
03:59 69.1°F 65.0°F 29.87in 13.0mph 89% 0.00in
04:04 69.2°F 66.0°F 29.87in 21.0mph 89% 0.00in
04:09 69.3°F 66.0°F 29.87in 17.0mph 89% 0.00in
04:14 69.3°F 66.0°F 29.86in 14.0mph 89% 0.00in
04:19 69.4°F 66.0°F 29.86in 15.0mph 89% 0.00in
04:24 69.5°F 66.0°F 29.86in 22.0mph 89% 0.00in
04:29 69.5°F 66.0°F 29.85in 16.0mph 89% 0.00in
04:34 69.6°F 66.0°F 29.84in 15.0mph 89% 0.00in
04:39 69.6°F 66.0°F 29.85in 17.0mph 89% 0.00in
04:44 69.7°F 66.0°F 29.85in 17.0mph 88% 0.00in
04:49 69.8°F 66.0°F 29.85in 18.0mph 88% 0.00in
04:54 69.8°F 66.0°F 29.85in 20.0mph 88% 0.00in
04:59 69.9°F 66.0°F 29.86in 13.0mph 88% 0.00in
05:04 69.9°F 66.0°F 29.86in 20.0mph 88% 0.00in
05:09 70.0°F 66.0°F 29.87in 23.0mph 87% 0.00in
05:14 70.0°F 66.0°F 29.87in 21.0mph 87% 0.00in
Comma Delimited File
Powered by Weather Underground, Inc.